Francistown, Botswana

9:06 AM CAT on February 13, 2016 (GMT +0200)
Francistown

Weather History for FBFT - November, 2011

Change the Weather History Date:

Wednesday, November 9, 2011

  Actual Average Record
Temperature  
Mean Temperature 82 °F -  
Max Temperature 100 °F 86 °F 104 °F (1997)
Min Temperature 64 °F 64 °F 32 °F (1996)
Cooling Degree Days 17    
Growing Degree Days 32 (Base 50)    
Moisture  
Dew Point 53 °F    
Average Humidity 36    
Maximum Humidity 64    
Minimum Humidity 19    
Precipitation  
Precipitation 0.00 in - - ()
Sea Level Pressure  
Sea Level Pressure 30.00 in    
Wind  
Wind Speed 4 mph ()    
Max Wind Speed 10 mph    
Max Gust Speed -    
Visibility 6.0 miles    
Events      
Averages and records for this station are not official NWS values.
T = Trace of Precipitation, MM = Missing Value Source: Averaged Metar Reports

Daily Weather History Graph

Daily Weather History Graph

Search for Another Location

Airport or City:

Trip Planner

Search our weather history database for the weather conditions in past years. The results will help you decide how hot, cold, wet, or windy it might be!

Date:

Astronomy

Nov. 09, 2011 Rise Set
Actual Time 5:23 AM CAT 6:24 PM CAT
Civil Twilight 4:59 AM CAT 6:48 PM CAT
Nautical Twilight 4:31 AM CAT 7:15 PM CAT
Astronomical Twilight 4:03 AM CAT 7:44 PM CAT
Moon 5:23 PM CAT (11/9) 4:11 AM CAT (11/9)
Length of Visible Light 13h 48m
Length of Day
13h 01m
Waxing Gibbous, 98% of the Moon is Illuminated
Nov 9
Waxing Gibbous
Nov 10
Full
Nov 18
Last Quarter
Nov 25
New
Dec 2
First Quarter

Hourly Weather History & Observations

Time (CAT) Temp. Heat Index Dew Point Humidity Pressure Visibility Wind Dir Wind Speed Gust Speed Precip Events Conditions
12:00 AM 75.2 °F - 51.8 °F 44% 30.06 in - SSE 4.6 mph - N/A   Clear
1:00 AM 73.4 °F - 53.6 °F 50% 30.06 in - South 3.5 mph - N/A   Clear
2:00 AM 71 °F - 53 °F 43%  in 6 mi Calm Calm - -  
2:00 AM 69.8 °F - 53.6 °F 56% 30.04 in - Calm Calm - N/A   Clear
4:00 AM 69.8 °F - 51.8 °F 53% 30.04 in - ENE 3.5 mph - N/A   Clear
5:00 AM 68.0 °F - 53.6 °F 60% 30.04 in - Calm Calm - N/A   Clear
6:00 AM 66.2 °F - 53.6 °F 64% 30.06 in - Variable 2.3 mph - N/A   Clear
7:00 AM 71.6 °F - 55.4 °F 57% 30.09 in - NNE 5.8 mph - N/A   Clear
8:00 AM 82 °F - 58 °F 34%  in 6 mi ENE 9.2 mph - -  
8:00 AM 82.4 °F 82.5 °F 59.0 °F 45% 30.09 in - ENE 9.2 mph - N/A   Clear
10:00 AM 91.4 °F 89.4 °F 55.4 °F 29% 30.09 in - ESE 6.9 mph - N/A   Clear
11:00 AM 95.0 °F 93.0 °F 55.4 °F 26% 30.06 in - ESE 8.1 mph - N/A   Clear
12:00 PM 95.0 °F 93.7 °F 57.2 °F 28% 30.01 in - East 8.1 mph - N/A   Clear
1:00 PM 96.8 °F 95.1 °F 55.4 °F 25% 29.98 in - ESE 8.1 mph - N/A   Clear
3:00 PM 98.6 °F 96.4 °F 53.6 °F 22% 29.92 in - ESE 8.1 mph - N/A   Clear
4:00 PM 100.4 °F - 51.8 °F 20% 29.89 in - East 9.2 mph - N/A   Clear
5:00 PM 98.6 °F - 50.0 °F 19% 29.89 in - East 8.1 mph - N/A   Clear
6:00 PM 95.0 °F - 51.8 °F 23% 29.89 in - ESE 10.4 mph - N/A   Clear
7:00 PM 89.6 °F - 51.8 °F 27% 29.89 in - East 5.8 mph - N/A   Clear
8:00 PM 87 °F - 51 °F 19%  in 6 mi SE 4.6 mph - -  
9:00 PM 84.2 °F - 51.8 °F 33% 29.95 in - SSE 3.5 mph - N/A   Clear
10:00 PM 84.2 °F - 50.0 °F 30% 29.95 in - ESE 6.9 mph - N/A   Clear
11:00 PM 80.6 °F - 48.2 °F 32% 29.95 in - East 9.2 mph - N/A   Clear